Regional Weather Roundup
Issued by NWS

Home | Current Version | Previous Version | Text Only | Print | Product List | Glossary Off
Versions: 1 2 3 4 5 6 7 8 9 10 11 12 13 14 15 16 17 18 19 20 21 22 23 24 25 26 27 28 29 30 31 32 33 34 35 36 37 38 39 40 41 42 43 44 45 46 47 48 49 50

000
ASUS45 KSLC 280610
RWRUT

UTAH REGIONAL WEATHER ROUNDUP
NATIONAL WEATHER SERVICE SALT LAKE CITY UT
1200 AM MDT FRI AUG 28 2015

UTZ001>011-023>025-280700-

NORTHERN UTAH

CITY           SKY/WX    TMP DP  RH WIND       PRES   REMARKS
BRIGHAM CITY   CLEAR     71  49  46 N7        30.17R
HILL AFB       CLEAR     71  44  37 SE15      30.20R
LOGAN          PTCLDY    63  53  70 CALM      30.19S
OGDEN          CLEAR     70  45  40 S8        30.17R
PROVO AIRPORT  CLEAR     66  50  55 S6        30.21S
SALT LAKE CITY PTCLDY    75  44  33 S10       30.16S
VERNAL         CLEAR     62  45  53 MISG      30.25R
WENDOVER       PTCLDY    73  39  29 SW3       30.16S
HEBER CITY     CLEAR     54  43  66 S5        30.30S
WEST JORDAN    CLEAR     70  39  32 CALM      30.21R

$$

UTZ012>022-026-027-280700-

SOUTHERN/CENTRAL UTAH

CITY           SKY/WX    TMP DP  RH WIND       PRES   REMARKS
BLANDING       PTCLDY    64  45  49 N10       30.32S
BRYCE CANYON   CLEAR     53  47  79 W8        30.43F
CEDAR CITY     CLEAR     66  43  43 SE7       30.27S
DELTA          CLEAR     69  42  38 NE8       30.20S
HANKSVILLE     CLEAR     72  52  49 CALM      30.18S
MILFORD        CLEAR     69  45  41 W10       30.21S
MOAB/CYNLANDS  MOCLDY    72  53  51 SW5       30.15R
PRICE          PTCLDY    70  42  36 NE6       30.28R
ST GEORGE      CLEAR     82  46  28 S5        30.07R
KANAB          CLEAR     68  59  73 N7        30.27S

$$

REGIONAL REPORTS     COLORADO/ARIZONA

CITY           SKY/WX    TMP DP  RH WIND       PRES   REMARKS
CRAIG, CO      MOCLDY    54  50  86 CALM      30.33R
GRAND JUNCTION MOCLDY    66  54  65 SW7       30.22R
RIFLE          CLOUDY    59  54  83 NE3       30.31S
MONTROSE       MOCLDY    67  53  61 MISG      30.32R
CORTEZ         PTCLDY    59  53  80 E5        30.26R
PAGE, AZ       PTCLDY    78  53  41 W3        30.14F
GRAND CANYON   PTCLDY    55  45  68 CALM      30.35S
KINGMAN        MOCLDY    78  57  48 E6        30.10S
FLAGSTAFF      CLOUDY    57  56  96 CALM      30.37F

$$

REGIONAL REPORTS    NEVADA/IDAHO/WYOMING

CITY           SKY/WX    TMP DP  RH WIND       PRES   REMARKS
LAS VEGAS, NV  PTCLDY    92  50  23 SW3       29.94S
ELY            CLEAR     58  43  57 S10       30.32S
ELKO           PTCLDY    70  34  26 E3        30.20S
POCATELLO, ID  CLEAR     68  36  30 CALM      30.15S
BURLEY         CLEAR     61  47  59 W3        30.13S
EVANSTON, WY   PTCLDY    58  38  47 S7        30.38S
ROCK SPRINGS   PTCLDY    56  44  64 E12       30.38R
KEMMERER       PTCLDY    50  37  62 NW14      30.40S

$$



USA.gov is the U.S. government's official web portal to all federal, state and local government web resources and services.